TimeEDT,TemperatureF,Dew PointF,Humidity,Sea Level PressureIn,VisibilityMPH,Wind Direction,Wind SpeedMPH,Gust SpeedMPH,PrecipitationIn,Events,Conditions,WindDirDegrees,DateUTC
12:07 AM,59.0,50.0,72,29.86,10.0,NNE,5.8,-,N/A,,Clear,30,2012-10-28 04:07:00
12:28 AM,59.0,50.0,72,29.85,10.0,NNE,9.2,-,N/A,,Clear,30,2012-10-28 04:28:00
12:49 AM,59.0,50.0,72,29.84,10.0,NE,6.9,-,N/A,,Clear,40,2012-10-28 04:49:00
1:11 AM,59.0,50.0,72,29.83,10.0,NE,6.9,-,N/A,,Clear,50,2012-10-28 05:11:00
1:32 AM,59.0,48.2,67,29.83,10.0,NE,6.9,16.1,N/A,,Clear,40,2012-10-28 05:32:00
1:53 AM,59.0,48.2,67,29.83,10.0,NE,8.1,17.3,N/A,,Clear,40,2012-10-28 05:53:00
2:14 AM,59.0,48.2,67,29.83,10.0,NE,12.7,-,N/A,,Clear,50,2012-10-28 06:14:00
2:36 AM,59.0,48.2,67,29.82,10.0,NE,11.5,16.1,N/A,,Clear,40,2012-10-28 06:36:00
3:18 AM,59.0,48.2,67,29.81,10.0,NE,11.5,18.4,N/A,,Clear,40,2012-10-28 07:18:00
3:40 AM,59.0,48.2,67,29.81,10.0,NE,10.4,19.6,N/A,,Clear,50,2012-10-28 07:40:00
4:01 AM,59.0,50.0,72,29.81,10.0,NNE,9.2,16.1,N/A,,Scattered Clouds,30,2012-10-28 08:01:00
4:22 AM,57.2,50.0,77,29.80,10.0,NE,8.1,-,N/A,,Scattered Clouds,40,2012-10-28 08:22:00
4:44 AM,55.4,51.8,88,29.80,10.0,NNE,6.9,-,N/A,,Scattered Clouds,30,2012-10-28 08:44:00
5:05 AM,55.4,51.8,88,29.79,10.0,NNE,5.8,-,N/A,,Clear,20,2012-10-28 09:05:00
5:26 AM,55.4,51.8,88,29.79,10.0,North,6.9,-,N/A,,Mostly Cloudy,10,2012-10-28 09:26:00
5:48 AM,55.4,51.8,88,29.79,10.0,NNE,8.1,-,N/A,,Scattered Clouds,20,2012-10-28 09:48:00
6:09 AM,55.4,50.0,82,29.79,10.0,NNE,8.1,-,N/A,,Mostly Cloudy,20,2012-10-28 10:09:00
6:30 AM,55.4,50.0,82,29.79,10.0,NNE,5.8,18.4,N/A,,Mostly Cloudy,30,2012-10-28 10:30:00
6:52 AM,55.4,50.0,82,29.78,10.0,NNE,12.7,18.4,N/A,,Scattered Clouds,30,2012-10-28 10:52:00
7:13 AM,55.4,46.4,72,29.78,10.0,NE,9.2,19.6,N/A,,Scattered Clouds,40,2012-10-28 11:13:00
7:34 AM,55.4,44.6,67,29.78,10.0,NE,15.0,23.0,N/A,,Clear,40,2012-10-28 11:34:00
7:55 AM,55.4,44.6,67,29.79,10.0,NNE,11.5,19.6,N/A,,Clear,30,2012-10-28 11:55:00
8:17 AM,55.4,44.6,67,29.81,10.0,NE,6.9,-,N/A,,Scattered Clouds,40,2012-10-28 12:17:00
8:38 AM,55.4,44.6,67,29.79,10.0,NNE,11.5,21.9,N/A,,Scattered Clouds,20,2012-10-28 12:38:00
8:59 AM,55.4,44.6,67,29.79,10.0,NNE,15.0,21.9,N/A,,Scattered Clouds,20,2012-10-28 12:59:00
9:20 AM,55.4,44.6,67,29.80,10.0,NNE,12.7,23.0,N/A,,Clear,20,2012-10-28 13:20:00
9:42 AM,55.4,44.6,67,29.79,10.0,North,12.7,20.7,N/A,,Clear,10,2012-10-28 13:42:00
12:10 PM,55.4,46.4,72,29.72,10.0,North,13.8,24.2,N/A,,Clear,10,2012-10-28 16:10:00
12:32 PM,55.4,48.2,77,29.71,10.0,NNE,15.0,25.3,N/A,,Clear,20,2012-10-28 16:32:00
12:53 PM,55.4,48.2,77,29.69,10.0,North,15.0,28.8,N/A,,Scattered Clouds,10,2012-10-28 16:53:00
1:14 PM,55.4,50.0,82,29.69,10.0,North,12.7,25.3,N/A,,Mostly Cloudy,10,2012-10-28 17:14:00
1:36 PM,53.6,50.0,88,29.68,10.0,North,13.8,23.0,N/A,,Mostly Cloudy,10,2012-10-28 17:36:00
1:57 PM,53.6,50.0,88,29.67,10.0,North,16.1,24.2,N/A,,Overcast,10,2012-10-28 17:57:00
2:18 PM,53.6,50.0,88,29.67,10.0,North,12.7,24.2,N/A,,Overcast,10,2012-10-28 18:18:00
2:39 PM,53.6,51.8,94,29.66,7.0,North,11.5,20.7,N/A,,Overcast,360,2012-10-28 18:39:00
3:01 PM,53.6,51.8,94,29.66,7.0,North,15.0,24.2,N/A,,Overcast,360,2012-10-28 19:01:00
4:04 PM,53.6,51.8,94,29.65,7.0,North,12.7,20.7,N/A,,Overcast,360,2012-10-28 20:04:00
4:26 PM,53.6,53.6,100,29.65,5.0,North,12.7,20.7,N/A,,Overcast,10,2012-10-28 20:26:00
4:47 PM,53.6,53.6,100,29.64,5.0,North,11.5,21.9,N/A,,Overcast,10,2012-10-28 20:47:00
5:08 PM,53.6,53.6,100,29.63,5.0,North,12.7,19.6,N/A,,Overcast,360,2012-10-28 21:08:00
5:29 PM,53.6,53.6,100,29.63,7.0,North,11.5,19.6,N/A,,Overcast,360,2012-10-28 21:29:00
5:51 PM,53.6,53.6,100,29.63,7.0,North,9.2,19.6,N/A,,Overcast,10,2012-10-28 21:51:00
6:12 PM,53.6,53.6,100,29.63,7.0,North,12.7,20.7,N/A,,Overcast,10,2012-10-28 22:12:00
6:33 PM,53.6,53.6,100,29.63,7.0,North,13.8,21.9,N/A,,Overcast,360,2012-10-28 22:33:00
6:54 PM,53.6,53.6,100,29.63,10.0,North,15.0,21.9,N/A,,Overcast,10,2012-10-28 22:54:00
7:37 PM,53.6,53.6,100,29.62,3.0,North,13.8,24.2,N/A,,Overcast,360,2012-10-28 23:37:00
7:58 PM,53.6,53.6,100,29.62,4.0,North,11.5,21.9,N/A,,Overcast,10,2012-10-28 23:58:00
8:19 PM,53.6,53.6,100,29.61,4.0,North,10.4,19.6,N/A,,Overcast,360,2012-10-29 00:19:00
8:41 PM,53.6,53.6,100,29.60,5.0,North,10.4,18.4,N/A,,Overcast,10,2012-10-29 00:41:00
9:02 PM,53.6,53.6,100,29.60,7.0,North,9.2,20.7,N/A,,Overcast,10,2012-10-29 01:02:00
9:23 PM,53.6,53.6,100,29.60,7.0,NNE,8.1,17.3,N/A,,Overcast,20,2012-10-29 01:23:00
9:44 PM,53.6,53.6,100,29.60,5.0,NNE,11.5,20.7,N/A,,Overcast,20,2012-10-29 01:44:00
10:06 PM,53.6,53.6,100,29.60,5.0,NNE,10.4,16.1,N/A,,Overcast,20,2012-10-29 02:06:00
10:48 PM,53.6,53.6,100,29.59,5.0,NNE,10.4,21.9,N/A,,Overcast,20,2012-10-29 02:48:00
11:10 PM,53.6,53.6,100,29.57,7.0,NNE,8.1,20.7,N/A,,Overcast,20,2012-10-29 03:10:00
11:31 PM,53.6,53.6,100,29.56,5.0,NNE,8.1,17.3,N/A,,Overcast,30,2012-10-29 03:31:00
11:52 PM,53.6,53.6,100,29.54,7.0,NNE,9.2,16.1,N/A,,Overcast,20,2012-10-29 03:52:00